Find Starlink 5464

NORAD ID: 54758 Int'l Des: 2022-175 Owner: SPXS Country: US Constellation: starlink operational
LEOCIRCULAR

Current View

Loading 3D Globe...

About Starlink 5464

Starlink 5464 (NORAD 54758) is a starlink constellation satellite (v1.5) launched Dec 17, 2022 by SPXS of US. It operates in LEO, CIRCULAR orbit with a mass of 305.00 kg.

About Starlink 5464

Description loading...

Upcoming Passes

Passes for default location (London). Set your location on the main map for personalized predictions.

Altitude History

Loading altitude history...

Two-Line Element Set

1 54758U 22175A 26171.34265669 .00000554 00000-0 52869-4 0 9992
2 54758 53.1600 298.3707 0000572 120.6223 239.4825 15.08836412195480
Epoch: Jun 20, 2026 • Age: 14 hours

Current Status

Altitude 553.3 km
Velocity 7.58 km/s
Sub-Earth Point -39.87°S, 13.65°E
Launch Date Dec 17, 2022
Age 3.5 years
Type internet

Technical Details

Classification Payload
Mass 305.00 kg
Dry Mass 290.00 kg
Total Mass 305.00 kg
Length 0.20 m
Diameter 2.80 m
Span 9.00 m
Shape Box + pan
Manufacturer SPXS
Bus Type Starlink
Phase Status In Orbit
Owner/State SPXS/US

Most Searched